Cloud_Cover
0 0 0 0 0 0 0 0 20 24 8 36 68 80 36 36 44 48 44 24 20 12 12 8 8 8 0 0 0 0 0 0 0 0 0 0 0 8 32 24 32 44 48 24 20 20 32 36 36 48 92 76 80 92 92 88 92 92 92 92 92 92 88 80 88 92 92 88 88 92 92 92 92 92 92 92 92 92 92 92 92 80 32 36 36 36
0 0 12 20 20 8 0 8 48 68 20 48 76 76 36 24 32 48 76 48 32 20 20 12 8 0 0 0 0 0 0 0 0 0 0 0 8 32 80 36 24 36 80 56 32 12 20 32 36 48 80 88 80 80 88 92 92 92 92 92 92 92 92 92 92 92 92 80 80 76 76 80 88 88 92 92 92 88 88 92 92 92 80 64 48 36
20 36 68 88 76 44 8 32 56 68 36 32 44 64 56 36 36 48 68 48 36 24 24 24 12 0 0 0 0 0 0 0 0 0 0 0 12 44 92 64 32 24 48 68 44 12 20 24 36 44 48 56 76 92 80 92 92 92 92 92 92 92 92 92 92 92 92 80 80 76 76 76 80 88 88 88 80 68 64 76 80 80 88 68 48 36
68 88 92 92 88 64 12 76 80 68 76 48 48 64 76 64 48 48 64 44 32 24 24 24 20 12 12 0 0 0 0 0 0 0 0 8 24 48 92 92 64 32 32 24 20 20 20 24 36 44 44 48 76 92 88 92 92 92 92 92 92 92 92 92 92 92 92 88 88 88 80 80 88 92 88 80 76 68 56 56 48 44 56 48 48 48
92 92 92 92 80 64 48 76 68 64 76 56 48 64 76 76 64 44 48 44 32 24 20 20 20 20 24 12 8 0 0 0 0 0 0 20 56 80 80 80 68 44 20 24 32 32 24 24 32 44 56 56 76 92 92 88 92 92 92 92 92 92 92 92 92 88 88 92 92 88 88 88 88 88 88 80 76 68 64 56 48 48 44 44 56 64
92 92 92 92 80 76 76 68 68 76 76 76 76 68 44 64 48 36 36 32 32 24 12 36 36 32 24 12 8 0 0 0 0 0 0 8 24 36 36 44 48 44 20 36 56 64 48 56 44 44 64 68 80 88 92 88 88 88 92 92 92 92 92 92 92 92 88 92 92 92 88 92 92 92 88 80 76 68 64 56 56 64 56 56 64 68
88 92 92 92 80 64 48 68 80 88 80 88 76 64 44 36 36 32 24 20 12 12 8 32 36 24 12 8 8 0 0 0 0 0 0 0 0 0 0 8 20 24 12 44 64 76 80 80 64 44 64 68 76 76 88 92 92 88 92 92 92 92 92 92 92 92 88 80 80 80 88 92 92 88 88 80 76 68 64 64 64 68 68 68 76 80
88 92 92 92 92 88 76 88 92 92 92 88 64 44 36 32 44 48 32 20 12 8 12 8 12 12 8 8 12 12 8 0 0 0 0 0 0 0 0 0 0 0 8 36 56 76 92 88 76 68 76 68 68 76 88 92 92 92 92 92 92 92 92 92 92 92 88 88 88 88 88 92 92 88 92 80 76 68 56 64 64 68 68 80 88 92
88 88 88 92 92 92 92 88 92 92 92 92 68 48 64 44 64 88 68 56 32 24 36 24 20 8 8 8 8 8 8 8 0 0 0 8 8 8 12 20 12 12 20 36 56 68 76 88 92 92 92 76 68 64 76 88 92 92 92 92 92 92 92 92 92 92 92 92 92 92 92 92 92 92 92 92 88 80 76 76 68 64 56 80 92 92
88 88 88 92 92 92 92 64 56 64 76 88 76 64 68 68 80 80 64 68 64 56 64 56 36 20 20 12 8 8 8 8 8 8 8 20 20 20 24 32 36 36 44 44 48 56 76 88 92 92 92 88 80 68 64 80 88 92 92 92 92 92 92 92 92 92 92 92 92 92 92 92 92 92 92 92 92 92 92 92 80 68 56 68 80 92
88 92 92 92 88 88 92 48 36 36 48 80 88 80 76 68 76 76 44 44 44 44 48 56 48 48 64 36 20 12 12 12 12 20 12 24 24 24 24 32 36 44 48 36 44 64 88 92 92 92 92 92 88 80 68 80 80 88 92 92 92 92 92 92 92 92 92 92 92 92 92 92 92 92 92 92 92 92 88 80 80 76 64 76 88 92
88 88 88 92 88 88 92 80 68 64 76 88 92 88 88 68 76 88 76 68 44 32 48 32 44 68 76 64 44 24 12 8 12 20 24 24 24 24 24 20 20 24 36 24 36 56 76 88 92 88 80 80 80 80 88 76 76 80 92 92 92 92 92 92 92 92 92 92 92 92 92 92 92 92 92 92 92 92 88 88 88 80 76 76 76 88
92 92 92 92 92 92 92 92 88 88 92 92 88 76 36 68 88 92 92 76 64 56 64 64 64 56 44 76 64 36 20 8 0 8 24 20 12 20 24 20 20 20 20 12 20 36 68 88 92 92 88 64 68 80 92 80 76 80 92 92 92 92 92 92 92 92 92 92 92 92 92 92 92 92 92 92 92 92 92 92 92 88 80 76 76 80
92 92 92 92 92 92 92 92 92 92 92 68 76 88 76 88 92 92 92 88 80 76 80 88 76 56 44 56 64 64 64 44 20 0 0 0 8 20 32 24 20 20 12 12 12 20 36 48 64 76 92 88 76 76 92 88 88 92 92 92 92 92 92 92 92 92 92 92 92 92 92 92 92 92 92 92 92 92 92 92 92 92 92 80 80 80
92 92 92 92 88 92 92 92 92 88 92 76 76 80 88 92 92 92 92 92 88 80 92 88 68 56 44 44 48 64 56 44 24 12 8 8 8 12 32 24 24 20 12 20 20 20 20 32 44 56 68 64 76 88 76 80 88 92 92 92 92 92 92 92 92 92 92 92 92 92 92 92 92 92 92 92 92 92 92 92 92 92 92 92 92 92
92 92 92 88 88 88 92 92 92 80 44 80 92 92 92 92 92 92 92 88 76 68 92 88 88 68 24 32 44 48 44 32 20 12 8 20 32 44 48 44 36 24 24 24 24 24 24 32 36 48 56 68 76 80 88 88 92 92 92 92 92 92 92 92 92 92 92 92 92 92 92 92 92 92 92 92 92 92 92 92 92 92 92 92 92 92
92 92 92 92 92 88 88 92 92 80 56 88 92 92 92 80 80 92 92 92 88 88 92 92 88 88 80 32 12 20 44 24 20 20 20 56 76 76 48 44 36 32 32 36 32 32 32 44 56 68 68 76 80 88 92 92 92 92 92 92 92 92 92 92 92 92 92 92 92 92 92 92 92 92 92 92 92 92 92 92 92 92 92 92 92 92
92 92 92 92 88 88 92 92 92 92 92 92 92 92 92 92 92 92 92 92 92 92 88 88 88 88 88 56 36 32 36 44 36 24 8 48 76 76 44 32 24 32 32 32 32 36 36 56 68 68 68 88 92 92 92 92 92 92 92 92 92 92 92 92 92 92 92 92 92 92 92 92 92 92 92 92 92 92 92 92 92 92 92 92 92 92
92 92 92 92 88 88 92 92 92 92 92 92 92 92 92 92 92 92 92 92 92 92 88 88 88 88 88 48 32 24 36 76 80 64 48 64 68 76 64 44 36 32 20 32 32 36 36 68 80 88 88 92 92 92 92 92 92 92 92 92 92 92 92 92 92 92 92 92 92 92 92 92 92 92 92 92 92 92 92 92 92 92 92 92 92 92
92 92 92 92 92 92 92 88 92 92 88 92 92 92 88 88 92 92 88 92 92 88 88 88 88 80 64 64 48 56 88 92 88 80 80 76 76 76 68 64 56 48 32 32 32 32 32 36 64 80 88 92 92 92 92 92 92 92 92 92 92 92 92 92 92 92 92 92 92 92 92 92 92 92 92 92 92 92 92 92 92 92 92 92 92 92
92 92 92 92 92 92 92 92 92 92 92 92 92 88 80 88 92 88 88 92 88 80 88 88 76 68 80 80 76 76 92 92 92 88 88 76 76 76 76 76 68 56 44 48 44 36 36 48 68 88 92 92 92 92 92 92 92 92 92 92 92 92 92 92 92 92 92 92 92 92 92 92 92 92 92 92 92 92 92 92 92 92 92 92 92 92
88 88 92 92 92 92 92 92 92 92 92 92 92 92 88 92 92 88 80 92 92 88 80 76 76 80 92 92 92 92 92 92 88 88 88 88 76 76 80 88 92 80 56 68 64 56 44 56 68 88 92 92 92 92 92 92 92 92 92 92 92 92 92 92 92 92 92 92 92 92 92 92 92 92 92 92 92 92 92 92 92 92 92 92 92 92
92 92 92 92 92 92 92 92 92 92 92 92 92 92 92 92 92 88 88 92 92 88 88 80 80 80 92 92 92 92 88 88 88 88 88 64 56 64 80 92 92 80 76 76 68 64 56 56 68 76 88 92 92 92 92 92 92 92 92 92 92 92 92 92 92 92 92 92 92 88 92 92 92 92 92 92 92 92 92 92 92 92 92 92 92 92
92 92 92 92 92 92 92 92 92 92 92 92 92 88 92 92 92 92 88 92 92 92 92 92 92 92 88 92 92 80 64 88 92 88 88 48 56 76 80 88 92 88 80 68 64 68 64 64 68 76 80 88 88 92 92 92 92 92 92 92 92 92 92 92 92 92 92 92 92 92 88 92 92 92 92 92 92 92 92 92 88 88 92 92 92 92
92 92 92 92 92 92 92 92 92 92 92 92 92 92 92 92 92 92 92 92 92 92 92 92 92 88 80 88 88 80 56 80 88 80 80 88 88 80 68 88 92 92 92 76 68 68 64 64 64 68 76 80 80 88 88 92 92 92 92 92 92 92 92 92 92 92 92 92 92 88 88 88 88 92 92 92 92 92 92 92 92 92 92 88 92 92
92 92 92 92 92 92 92 92 92 92 92 92 92 92 92 92 92 92 92 92 92 92 92 92 92 92 92 92 80 76 68 88 80 68 56 80 88 80 68 88 92 92 88 80 80 80 76 64 64 64 68 64 68 76 88 92 92 92 92 92 92 92 92 92 92 92 92 92 92 92 92 88 88 88 88 88 88 92 92 92 92 92 92 92 92 88
92 92 88 92 92 92 88 92 92 92 92 92 92 92 92 92 92 92 88 92 92 92 92 88 88 88 88 88 88 88 68 88 92 80 64 80 88 80 76 88 92 92 88 88 88 88 80 76 68 64 68 64 68 76 92 92 92 92 92 92 92 92 92 92 92 92 92 92 92 92 92 88 88 88 88 88 88 92 92 92 92 92 92 92 88 88
80 80 80 88 88 88 88 88 92 92 92 92 92 92 92 92 88 80 88 92 92 92 88 80 88 88 88 88 88 88 88 88 92 92 92 88 88 80 76 92 92 92 92 92 92 88 88 76 68 68 68 68 68 76 88 88 92 92 92 92 92 92 92 92 92 92 92 92 92 92 92 92 88 88 88 88 88 88 92 92 92 92 92 92 88 88
68 76 80 80 80 80 80 88 92 92 92 92 92 92 92 92 88 76 68 68 80 92 88 80 80 88 92 88 88 88 88 88 88 88 92 88 88 80 68 88 92 92 92 92 92 88 88 80 76 68 68 68 68 76 76 80 88 92 92 92 92 92 92 92 92 92 92 92 92 92 92 92 88 88 88 88 88 88 88 92 92 92 92 92 80 68
68 76 76 80 88 88 80 80 88 88 88 88 92 92 92 92 92 88 68 64 76 92 92 88 88 88 92 92 92 88 88 80 80 80 88 76 76 80 76 88 92 92 92 92 88 88 80 76 68 68 68 68 68 76 76 76 80 92 92 92 92 92 92 92 92 92 92 92 92 92 92 92 92 92 92 92 92 92 92 92 92 92 92 92 80 76
80 88 80 80 80 80 80 80 80 88 88 88 88 92 92 92 92 92 92 92 92 92 92 88 88 92 92 92 92 80 64 56 68 76 68 48 48 56 56 80 88 92 92 92 88 88 80 80 68 64 64 64 64 64 68 68 76 80 88 92 92 92 92 92 92 92 92 92 92 92 88 92 92 92 92 92 92 92 92 92 92 92 92 80 80 88
92 92 92 80 80 88 88 88 88 88 88 88 88 88 92 92 92 92 92 92 92 92 92 92 92 92 92 92 88 80 48 64 76 80 56 36 24 32 64 80 88 92 92 92 88 80 88 80 76 64 56 56 56 56 64 64 68 76 80 88 92 92 92 88 88 92 92 88 92 92 92 92 92 92 92 92 92 92 92 92 92 92 92 80 88 92
92 92 92 88 92 92 92 88 88 88 88 92 92 92 88 92 92 92 92 92 92 92 92 92 92 92 92 92 88 88 76 76 80 88 80 48 32 24 36 76 88 92 92 92 92 80 68 68 68 68 64 56 48 48 48 68 68 68 80 80 88 88 88 88 88 88 92 92 92 92 92 88 92 92 92 92 92 92 92 92 92 92 92 92 92 92
92 92 92 92 92 92 92 88 88 88 80 88 88 92 92 92 92 92 92 92 92 92 92 92 92 92 92 92 92 88 76 64 76 88 92 68 48 32 20 56 80 92 92 92 92 92 80 80 68 64 80 64 56 56 48 56 64 68 68 68 76 80 80 88 80 80 88 88 88 88 92 88 88 92 92 92 92 92 92 92 92 92 92 92 92 92
92 92 88 92 92 92 92 88 88 80 80 88 88 92 92 92 92 92 92 92 92 92 88 80 88 92 92 92 92 88 64 56 76 88 92 76 56 44 32 64 88 92 92 88 92 92 92 92 80 76 68 68 76 68 56 56 56 64 56 56 68 76 80 80 80 80 88 88 88 88 88 80 88 92 92 92 92 92 92 92 92 92 92 92 92 92
88 80 76 76 88 92 92 92 88 88 88 80 88 88 92 92 92 92 92 92 92 92 92 88 88 92 92 92 92 88 80 80 88 92 92 68 64 56 56 80 92 92 88 88 92 92 92 92 88 80 80 80 88 88 80 68 64 64 56 48 56 68 68 76 76 76 80 80 80 88 88 80 80 92 92 88 88 92 92 92 92 92 92 92 92 92
88 80 64 68 80 92 92 92 92 92 88 80 80 88 92 92 92 92 92 92 92 92 92 92 92 88 88 88 88 92 92 92 92 92 92 76 64 64 68 68 76 80 88 88 88 92 92 92 92 88 88 88 88 88 80 76 76 68 76 68 64 64 68 68 76 76 80 80 88 88 80 76 80 92 88 80 88 88 88 88 88 88 88 88 80 80
88 88 80 76 88 92 92 92 92 88 76 80 80 88 88 88 88 88 92 92 92 92 92 92 92 88 88 88 88 88 92 92 92 92 92 88 76 64 68 76 88 88 76 80 88 92 92 92 92 92 88 88 80 76 80 76 76 76 76 68 56 56 68 68 68 68 76 88 88 92 92 88 92 92 88 88 80 80 68 68 76 76 76 76 76 76
92 88 76 88 80 76 92 88 80 76 68 68 76 80 80 80 88 88 92 92 92 92 92 92 92 92 88 80 80 88 92 92 92 92 92 92 88 76 76 88 92 88 80 88 88 92 92 92 92 92 92 80 80 76 76 80 88 80 64 64 64 64 64 68 76 76 68 76 88 92 92 92 92 92 92 92 80 76 76 64 64 68 76 76 76 80
92 92 88 92 92 88 92 92 88 88 88 88 80 68 68 88 92 92 88 88 92 92 92 92 92 92 92 92 92 88 92 88 92 92 92 92 92 92 88 92 92 92 92 92 92 92 92 92 88 88 92 92 92 88 76 88 88 80 68 76 80 80 56 56 64 68 68 76 80 88 92 92 92 92 92 92 88 80 88 80 76 76 80 80 76 76
80 76 80 88 92 92 92 92 92 92 92 92 92 88 88 92 92 92 92 88 92 92 92 92 92 92 92 92 92 88 88 88 92 92 92 92 92 92 92 92 92 92 92 92 92 88 88 88 92 92 92 92 92 92 92 92 88 88 88 88 68 48 36 44 56 68 68 68 76 80 88 88 88 88 92 92 92 88 88 88 88 80 80 76 76 80
88 76 56 76 88 92 92 92 92 92 92 92 92 92 92 88 92 92 92 92 92 92 92 92 92 92 92 88 88 88 88 88 88 88 92 92 92 92 92 92 92 92 92 92 92 92 92 92 92 92 92 92 92 92 92 92 92 92 92 92 92 88 68 68 76 76 68 68 76 76 80 80 80 80 80 80 80 88 88 88 80 68 64 64 64 64
88 88 88 80 80 92 92 92 92 92 92 92 92 92 92 92 92 92 92 92 92 92 92 92 92 92 92 92 88 80 88 88 88 88 88 88 88 88 92 92 92 92 92 92 92 88 76 88 92 88 88 92 92 92 92 92 92 92 92 92 88 92 92 80 80 80 80 76 76 80 80 80 76 76 76 76 76 76 76 76 76 76 68 68 64 56
88 88 88 80 80 80 92 92 92 92 92 92 92 92 92 92 92 92 92 92 92 92 92 92 92 88 92 80 88 88 88 88 80 80 88 76 64 68 92 92 92 92 92 92 92 92 88 92 92 92 92 92 92 92 92 92 92 92 92 92 92 92 92 80 68 64 68 80 80 80 88 88 80 80 80 76 68 76 76 68 68 68 68 64 64 64
76 76 80 88 88 92 92 92 92 92 92 92 92 92 92 92 92 92 92 92 92 92 92 92 92 80 76 80 88 92 92 92 88 80 68 80 76 76 92 88 88 92 92 92 92 92 92 92 92 88 88 88 88 88 88 88 80 76 88 88 92 92 80 76 76 76 76 80 80 80 88 88 76 68 68 56 56 64 64 56 56 64 68 68 64 68
80 80 68 80 88 92 92 92 92 92 88 88 88 88 92 88 92 92 88 88 92 92 92 92 92 88 80 80 88 92 92 88 88 92 92 92 92 92 92 88 92 92 88 92 92 92 92 92 92 88 88 88 88 88 80 76 76 76 80 88 92 92 92 92 88 80 76 80 88 88 88 88 88 88 76 64 56 48 48 44 48 56 64 68 76 68
88 80 68 80 80 88 88 92 92 88 80 80 80 88 88 88 88 88 92 88 88 88 92 92 88 80 76 80 88 92 92 92 88 88 92 92 92 92 92 92 92 92 92 92 92 92 92 92 92 88 88 88 88 76 44 56 64 76 80 88 88 92 92 92 92 92 92 88 88 88 80 88 88 88 80 76 76 68 68 68 64 68 68 64 64 64
88 88 88 88 88 88 76 88 88 88 80 80 76 76 88 88 88 88 88 88 88 88 88 88 80 80 80 88 88 92 92 92 88 80 80 88 88 92 92 92 92 92 92 92 92 92 92 92 88 80 88 88 88 88 88 76 68 68 68 80 88 88 88 92 92 92 92 92 92 92 92 92 88 88 88 92 88 88 92 68 64 64 68 64 64 56
76 80 88 88 88 88 88 80 80 80 80 76 80 80 80 88 88 88 88 88 88 88 88 80 80 88 88 88 88 92 92 92 88 80 76 80 80 88 88 88 92 92 92 92 92 88 88 80 68 64 88 88 88 88 88 88 80 80 80 88 88 88 88 88 88 92 92 92 92 92 92 92 80 80 88 92 92 88 88 76 68 64 64 64 56 56
76 68 80 88 88 88 88 80 88 88 80 80 80 88 92 88 88 88 88 88 88 88 80 80 88 88 88 88 88 92 92 92 92 88 80 80 80 76 80 88 88 88 88 88 88 88 88 88 68 56 80 76 68 76 88 88 88 88 88 88 88 88 88 80 80 88 88 92 92 92 92 88 88 88 80 80 88 88 76 80 80 76 64 64 56 56
80 76 88 88 88 88 92 88 88 88 88 88 88 92 88 88 88 88 88 88 88 88 88 80 88 88 88 92 92 92 92 92 92 88 88 88 88 80 80 80 88 88 76 80 80 88 88 88 80 80 80 44 44 64 88 88 88 88 88 88 88 88 88 88 88 88 88 88 88 88 88 80 88 92 88 80 80 88 88 88 76 64 64 56 56 56